Weather in Sovkhoznoye

Russia / The Kabardino-Balkar Republic     43°48′05″N   43°08′48″E
temp.,
°C
wind,
m/s
gust,
m/s
humid.,
%
clouds,
%
prec.,
mm/h
press.,
hPa
HPBL,
m
19 september, sun
sun1900:00+12s1189100 0.0 101610
03:00+11sse11925 0.0 101611
06:00+10sse1183100 0.0 101510
09:00+15e227086 0.0 1015332
12:00+19e446397 0.0 1014787
15:00+20ese4558100 0.0 10131070
18:00+17se2272100 0.1 101335
21:00+14w118299 0.1 101411
20 september, mon
mon2000:00+13wsw118248 0.0 101412
03:00+13wsw227266 0.0 101415
06:00+13wsw226599 0.0 101411
09:00+18e11565 0.0 1014350
12:00+22e33535 0.0 10131018
15:00+22e434992 0.1 10131541
18:00+17nw117398 0.8 101526
21:00+16wsw118079 1.4 101715
21 september, tue
tue2100:00+13wsw00874 0.0 101711
03:00+12sw22850 0.0 101617
06:00+12sw32715 0.0 101618
09:00+18ese125399 0.0 1015344
12:00+22ese445290 0.0 1013973
15:00+23ese455140 0.0 10121329
18:00+17ese117762 0.9 101311
21:00+15sw338323 3.1 101429
22 september, wed
wed2200:00+13wnw1287100 0.2 101414
03:00+12wnw2296100 0.8 101539
06:00+13nw1294100 0.1 1015177
09:00+13nne1296100 0.8 1015211
12:00+13ne1296100 1.3 1015241
15:00+12n2398100 2.1 1015338
18:00+11ene1198100 0.5 1016140
21:00+11ne2298100 1.3 1016184
23 september, thu
thu2300:00+10e1198100 0.2 1015147
03:00+10ene1198100 0.2 1014137
06:00+10e1198100 0.1 1014140
09:00+10e2297100 0.1 1013260
12:00+11ese249399 0.0 1011361
15:00+13ese4587100 0.1 1009552
18:00+12ese2497100 0.1 1010256
21:00+11s2295100 0.1 100728